Arlington, WA
on Friday, December 28, 2012

Friday
Previous Day Next Day
Daily Summary
 ActualAverageRecord
Temperature
Mean Temperature °F °F  
Max Temperature 44°F 43°F 53°F (2011)
Min Temperature 35°F 22°F 19°F (1996)
Degree Days
Heating Degree Days 26    
Moisture
Dew Point 35°F   
Average Humidity 85    
Maximum Humidity 93    
Minimum Humidity 71    
Precipitation
Precipitation 0.00 in in in ()
Wind
Wind Speed 1 mph   
Max Wind Speed 6 mph   
Max Gust Speed mph   
Visibility 10 miles   
Events     
Averages and records for this station are not official NWS values.
Key: T is trace of precipitation, MM is missing value
Source: NWS Daily Summary
Seasonal Weather Averages
Time(PST)TemperatureDew PointHumidity Pressure Visibility Wind DirectionWind SpeedGust SpeedPrecipitationEvents Conditions
12:15 AM 39.2°F 35.6°F 87% 30.18 in 10.0 miles Calm Calm - N/A   Overcast
12:35 AM 41.0°F 35.6°F 81% 30.18 in 10.0 miles ESE 5.8 mph - N/A   Overcast
12:55 AM 41.0°F 35.6°F 81% 30.18 in 10.0 miles ESE 4.6 mph - N/A   Overcast
1:15 AM 41.0°F 35.6°F 81% 30.18 in 10.0 miles Calm Calm - N/A   Overcast
1:35 AM 41.0°F 35.6°F 81% 30.18 in 10.0 miles Calm Calm - N/A   Overcast
1:55 AM 39.2°F 35.6°F 87% 30.18 in 10.0 miles Calm Calm - N/A   Overcast
2:15 AM 41.0°F 35.6°F 81% 30.19 in 10.0 miles Calm Calm - N/A   Overcast
2:35 AM 39.2°F 35.6°F 87% 30.19 in 10.0 miles NE 5.8 mph - N/A   Overcast
2:55 AM 39.2°F 35.6°F 87% 30.18 in 10.0 miles NE 3.5 mph - N/A   Overcast
3:15 AM 39.2°F 35.6°F 87% 30.17 in 10.0 miles Calm Calm - N/A   Overcast
3:35 AM 39.2°F 35.6°F 87% 30.17 in 10.0 miles NE 3.5 mph - N/A   Overcast
3:55 AM 39.2°F 35.6°F 87% 30.16 in 10.0 miles Calm Calm - N/A   Overcast
4:35 AM 39.2°F 35.6°F 87% 30.16 in 10.0 miles Calm Calm - N/A   Overcast
4:55 AM 39.2°F 35.6°F 87% 30.16 in 10.0 miles Calm Calm - N/A   Overcast
5:15 AM 39.2°F 35.6°F 87% 30.16 in 10.0 miles Calm Calm - N/A   Overcast
5:55 AM 37.4°F 35.6°F 93% 30.15 in 10.0 miles Calm Calm - N/A   Overcast
6:15 AM 37.4°F 35.6°F 93% 30.15 in 10.0 miles Calm Calm - N/A   Overcast
6:35 AM 35.6°F 33.8°F 93% 30.15 in 10.0 miles Calm Calm - N/A   Overcast
6:55 AM 35.6°F 33.8°F 93% 30.14 in 10.0 miles Calm Calm - N/A   Mostly Cloudy
7:15 AM 35.6°F 33.8°F 93% 30.14 in 10.0 miles Calm Calm - N/A   Overcast
7:35 AM 35.6°F 33.8°F 93% 30.14 in 10.0 miles Calm Calm - N/A   Overcast
7:55 AM 37.4°F 33.8°F 87% 30.14 in 10.0 miles Calm Calm - N/A   Overcast
8:15 AM 37.4°F 33.8°F 87% 30.14 in 10.0 miles NE 4.6 mph - N/A   Overcast
8:35 AM 37.4°F 33.8°F 87% 30.14 in 10.0 miles ENE 4.6 mph - N/A   Overcast
8:55 AM 37.4°F 33.8°F 87% 30.15 in 10.0 miles Calm Calm - N/A   Scattered Clouds
9:15 AM 37.4°F 33.8°F 87% 30.15 in 10.0 miles Calm Calm - N/A   Partly Cloudy
9:35 AM 37.4°F 33.8°F 87% 30.15 in 10.0 miles Calm Calm - N/A   Clear
9:55 AM 39.2°F 33.8°F 81% 30.15 in 10.0 miles Calm Calm - N/A   Clear
10:15 AM 39.2°F 35.6°F 87% 30.15 in 10.0 miles Calm Calm - N/A   Clear
10:35 AM 41.0°F 35.6°F 81% 30.16 in 10.0 miles Calm Calm - N/A   Clear
10:55 AM 41.0°F 35.6°F 81% 30.15 in 10.0 miles Calm Calm - N/A   Clear
11:15 AM 42.8°F 35.6°F 76% 30.15 in 10.0 miles Calm Calm - N/A   Clear
11:35 AM 42.8°F 35.6°F 76% 30.14 in 10.0 miles Calm Calm - N/A   Clear
11:55 AM 42.8°F 35.6°F 76% 30.14 in 10.0 miles Calm Calm - N/A   Clear
12:15 PM 42.8°F 35.6°F 76% 30.14 in 10.0 miles Calm Calm - N/A   Clear
12:35 PM 44.6°F 35.6°F 71% 30.13 in 10.0 miles Calm Calm - N/A   Partly Cloudy
12:55 PM 44.6°F 35.6°F 71% 30.13 in 10.0 miles Calm Calm - N/A   Mostly Cloudy
1:15 PM 44.6°F 37.4°F 76% 30.13 in 10.0 miles Calm Calm - N/A   Mostly Cloudy
1:35 PM 44.6°F 37.4°F 76% 30.13 in 10.0 miles Calm Calm - N/A   Overcast
1:55 PM 44.6°F 37.4°F 76% 30.13 in 10.0 miles Calm Calm - N/A   Mostly Cloudy
2:35 PM 44.6°F 37.4°F 76% 30.13 in 10.0 miles NNE 3.5 mph - N/A   Clear
2:55 PM 44.6°F 37.4°F 76% 30.13 in 10.0 miles NE 4.6 mph - N/A   Clear
3:15 PM 42.8°F 37.4°F 81% 30.13 in 10.0 miles NE 4.6 mph - N/A   Clear
3:35 PM 42.8°F 37.4°F 81% 30.14 in 10.0 miles NNE 5.8 mph - N/A   Clear
3:55 PM 41.0°F 35.6°F 81% 30.14 in 10.0 miles North 4.6 mph - N/A   Clear
4:15 PM 39.2°F 35.6°F 87% 30.14 in 10.0 miles NNE 3.5 mph - N/A   Clear
4:35 PM 39.2°F 35.6°F 87% 30.14 in 10.0 miles NNE 3.5 mph - N/A   Mostly Cloudy
4:55 PM 39.2°F 35.6°F 87% 30.14 in 10.0 miles NNE 3.5 mph - N/A   Overcast
5:15 PM 41.0°F 35.6°F 81% 30.14 in 10.0 miles NE 5.8 mph - N/A   Overcast
5:35 PM 41.0°F 35.6°F 81% 30.14 in 10.0 miles NNE 4.6 mph - N/A   Overcast
5:55 PM 39.2°F 35.6°F 87% 30.14 in 10.0 miles Calm Calm - N/A   Overcast
6:15 PM 39.2°F 33.8°F 81% 30.15 in 10.0 miles Calm Calm - N/A   Overcast
6:35 PM 39.2°F 35.6°F 87% 30.15 in 10.0 miles Calm Calm - N/A   Overcast
6:55 PM 39.2°F 35.6°F 87% 30.15 in 10.0 miles Calm Calm - N/A   Overcast
7:15 PM 39.2°F 35.6°F 87% 30.15 in 10.0 miles Calm Calm - N/A   Overcast
7:35 PM 39.2°F 33.8°F 81% 30.15 in 10.0 miles Calm Calm - N/A   Overcast
7:55 PM 39.2°F 35.6°F 87% 30.15 in 10.0 miles Calm Calm - N/A   Overcast
8:15 PM 37.4°F 35.6°F 93% 30.16 in 10.0 miles Calm Calm - N/A   Overcast
8:35 PM 39.2°F 35.6°F 87% 30.16 in 10.0 miles Calm Calm - N/A   Overcast
8:55 PM 37.4°F 33.8°F 87% 30.16 in 10.0 miles Calm Calm - N/A   Overcast
9:15 PM 37.4°F 33.8°F 87% 30.16 in 10.0 miles Calm Calm - N/A   Overcast
9:35 PM 37.4°F 33.8°F 87% 30.16 in 10.0 miles Calm Calm - N/A   Mostly Cloudy
9:55 PM 35.6°F 33.8°F 93% 30.17 in 10.0 miles Calm Calm - N/A   Partly Cloudy
10:15 PM 37.4°F 33.8°F 87% 30.17 in 10.0 miles Calm Calm - N/A   Partly Cloudy
10:35 PM 37.4°F 33.8°F 87% 30.18 in 10.0 miles Calm Calm - N/A   Mostly Cloudy
10:55 PM 37.4°F 33.8°F 87% 30.18 in 10.0 miles Calm Calm - N/A   Overcast
11:15 PM 37.4°F 33.8°F 87% 30.18 in 10.0 miles Calm Calm - N/A   Overcast
11:35 PM 37.4°F 33.8°F 87% 30.18 in 10.0 miles Calm Calm - N/A   Overcast
11:55 PM 35.6°F 33.8°F 93% 30.18 in 10.0 miles Calm Calm - N/A   Mostly Cloudy
Moon Phase
Dec. 28 Jan. 04 Jan. 11 Jan. 18 Jan. 26
Sunrise:07:58 AM (PST) Moon Rise:05:09 PM (PST)12/28
Sunset:04:22 PM (PST) Moon Set:07:52 AM (PST)12/28

Copyright © 2014 The Weather Underground, Inc.